When you browse on this site, cookies collect data to enhance your experience and personalize the content and advertising you see.
Visit our Privacy Policy to learn more. By continuing to use the site, you agree to this use of cookies and data.
  • In Österreich
  • Länderverzeichnis
  • Für 7 Tage
  • Wassertemperatur
  • Satellitenkarten
  • Wetterkarte
  • News
  • Widgets
  • user-avatar
    Anmelden

    Stündliche Wetter Chyrvyne

    Heute, 24 April, Mittwoch

    Zeit Temperatur Niederschläge Wind Luftdruck Luftfeuchtigkeit
    00:00 +11°C° 0 mm 0 m/S 756 mmHg 50%
    01:00 +11°C° 0 mm 0 m/S 756 mmHg 50%
    02:00 +12°C° 0 mm 1 m/S 756 mmHg 47%
    03:00 +11°C° 0 mm 1 m/S 756 mmHg 49%
    04:00 +11°C° 0 mm 1 m/S 756 mmHg 51%
    05:00 +10°C° 0 mm 1 m/S 756 mmHg 53%
    06:00 +12°C° 0 mm 1 m/S 756 mmHg 50%
    07:00 +15°C° 0 mm 2 m/S 757 mmHg 47%
    08:00 +17°C° 0 mm 2 m/S 757 mmHg 44%
    09:00 +18°C° 0 mm 2 m/S 757 mmHg 40%
    10:00 +20°C° 0 mm 2 m/S 757 mmHg 35%
    11:00 +21°C° 0 mm 2 m/S 757 mmHg 30%
    12:00 +21°C° 0 mm 2 m/S 756 mmHg 30%
    13:00 +23°C° 0 mm 2 m/S 756 mmHg 29%
    14:00 +23°C° 0 mm 1 m/S 756 mmHg 29%
    15:00 +23°C° 0 mm 1 m/S 756 mmHg 33%
    16:00 +22°C° 0 mm 1 m/S 756 mmHg 36%
    17:00 +22°C° 0 mm 1 m/S 756 mmHg 40%
    18:00 +20°C° 0 mm 1 m/S 756 mmHg 43%
    19:00 +19°C° 0 mm 1 m/S 756 mmHg 47%
    20:00 +16°C° 0 mm 1 m/S 756 mmHg 50%
    21:00 +16°C° 0 mm 1 m/S 756 mmHg 53%
    22:00 +15°C° 0 mm 1 m/S 756 mmHg 55%
    23:00 +14°C° 0 mm 1 m/S 756 mmHg 58%

    Morgen, 25 April, Donnerstag

    Zeit Temperatur Niederschläge Wind Luftdruck Luftfeuchtigkeit
    00:00 +13°C° 0 mm 0 m/S 756 mmHg 60%
    01:00 +12°C° 0 mm 0 m/S 756 mmHg 61%
    02:00 +12°C° 0 mm 0 m/S 756 mmHg 62%
    03:00 +12°C° 0 mm 0 m/S 756 mmHg 63%
    04:00 +11°C° 0 mm 0 m/S 756 mmHg 65%
    05:00 +12°C° 0 mm 1 m/S 756 mmHg 66%
    06:00 +14°C° 0 mm 1 m/S 756 mmHg 61%
    07:00 +15°C° 0 mm 0 m/S 756 mmHg 56%
    08:00 +17°C° 0 mm 0 m/S 756 mmHg 52%
    09:00 +18°C° 0 mm 0 m/S 756 mmHg 48%
    10:00 +20°C° 0 mm 0 m/S 756 mmHg 43%
    11:00 +21°C° 0 mm 0 m/S 756 mmHg 39%
    12:00 +21°C° 0 mm 0 m/S 756 mmHg 39%
    13:00 +21°C° 0 mm 0 m/S 755 mmHg 39%
    14:00 +21°C° 0 mm 0 m/S 755 mmHg 39%
    15:00 +21°C° 0 mm 0 m/S 755 mmHg 40%
    16:00 +20°C° 0 mm 0 m/S 755 mmHg 41%
    17:00 +20°C° 0 mm 0 m/S 754 mmHg 42%
    18:00 +19°C° 0 mm 0 m/S 754 mmHg 46%
    19:00 +17°C° 0 mm 0 m/S 754 mmHg 49%
    20:00 +15°C° 0 mm 0 m/S 754 mmHg 53%
    21:00 +15°C° 0 mm 0 m/S 754 mmHg 54%
    22:00 +14°C° 0 mm 0 m/S 754 mmHg 56%
    23:00 +14°C° 0 mm 0 m/S 754 mmHg 57%

    übermorgen, 26 April, Freitag

    Zeit Temperatur Niederschläge Wind Luftdruck Luftfeuchtigkeit
    00:00 +14°C° 0 mm 0 m/S 754 mmHg 58%
    01:00 +13°C° 0 mm 0 m/S 754 mmHg 59%
    02:00 +13°C° 0 mm 0 m/S 753 mmHg 60%
    03:00 +13°C° 0 mm 0 m/S 753 mmHg 61%
    04:00 +14°C° 0 mm 1 m/S 753 mmHg 61%
    05:00 +14°C° 0 mm 1 m/S 753 mmHg 62%
    06:00 +14°C° 0 mm 0 m/S 753 mmHg 58%
    07:00 +16°C° 0 mm 0 m/S 753 mmHg 55%
    08:00 +17°C° 0 mm 0 m/S 753 mmHg 52%
    09:00 +20°C° 0 mm 1 m/S 753 mmHg 47%
    10:00 +22°C° 0 mm 1 m/S 753 mmHg 42%
    11:00 +23°C° 0 mm 2 m/S 753 mmHg 37%
    12:00 +23°C° 0 mm 2 m/S 752 mmHg 38%
    13:00 +23°C° 0 mm 2 m/S 752 mmHg 39%
    14:00 +21°C° 0 mm 2 m/S 752 mmHg 41%
    15:00 +22°C° 0 mm 1 m/S 751 mmHg 43%
    16:00 +22°C° 0 mm 1 m/S 751 mmHg 45%
    17:00 +22°C° 0 mm 1 m/S 751 mmHg 47%
    18:00 +20°C° 0 mm 1 m/S 751 mmHg 50%
    19:00 +19°C° 0 mm 1 m/S 751 mmHg 53%
    20:00 +16°C° 0 mm 1 m/S 751 mmHg 57%
    21:00 +16°C° 0 mm 1 m/S 750 mmHg 59%
    22:00 +15°C° 0 mm 1 m/S 750 mmHg 61%
    23:00 +14°C° 0 mm 1 m/S 750 mmHg 63%

    27 April, Samstag

    Zeit Temperatur Niederschläge Wind Luftdruck Luftfeuchtigkeit
    00:00 +14°C° 0 mm 1 m/S 750 mmHg 64%
    01:00 +13°C° 0 mm 1 m/S 750 mmHg 66%
    02:00 +13°C° 0 mm 1 m/S 749 mmHg 68%
    03:00 +13°C° 0 mm 1 m/S 749 mmHg 68%
    04:00 +12°C° 0 mm 1 m/S 749 mmHg 69%
    05:00 +12°C° 0 mm 1 m/S 749 mmHg 69%
    06:00 +14°C° 0 mm 2 m/S 749 mmHg 64%
    07:00 +16°C° 0 mm 2 m/S 749 mmHg 59%
    08:00 +18°C° 0 mm 3 m/S 749 mmHg 53%
    09:00 +19°C° 0 mm 4 m/S 748 mmHg 50%
    10:00 +20°C° 0 mm 5 m/S 748 mmHg 46%
    11:00 +21°C° 0 mm 6 m/S 748 mmHg 42%
    12:00 +22°C° 0 mm 6 m/S 747 mmHg 41%
    13:00 +22°C° 0 mm 6 m/S 747 mmHg 40%
    14:00 +22°C° 0 mm 6 m/S 747 mmHg 40%
    15:00 +22°C° 0 mm 5 m/S 746 mmHg 43%
    16:00 +21°C° 0 mm 4 m/S 746 mmHg 46%
    17:00 +21°C° 0 mm 3 m/S 745 mmHg 50%
    18:00 +19°C° 0 mm 3 m/S 745 mmHg 53%
    19:00 +18°C° 0 mm 3 m/S 745 mmHg 56%
    20:00 +17°C° 0 mm 3 m/S 745 mmHg 59%
    21:00 +16°C° 0 mm 3 m/S 745 mmHg 60%
    22:00 +16°C° 0 mm 3 m/S 744 mmHg 60%
    23:00 +16°C° 0 mm 3 m/S 744 mmHg 61%

    28 April, Sonntag

    Zeit Temperatur Niederschläge Wind Luftdruck Luftfeuchtigkeit
    00:00 +14°C° 0 mm 3 m/S 744 mmHg 63%
    01:00 +14°C° 0 mm 4 m/S 744 mmHg 65%
    02:00 +13°C° 0 mm 4 m/S 744 mmHg 67%
    03:00 +12°C° 0 mm 4 m/S 743 mmHg 68%
    04:00 +12°C° 0 mm 4 m/S 743 mmHg 70%
    05:00 +12°C° 0 mm 4 m/S 743 mmHg 72%
    06:00 +13°C° 0 mm 4 m/S 743 mmHg 68%
    07:00 +14°C° 0 mm 5 m/S 743 mmHg 64%
    08:00 +16°C° 0 mm 5 m/S 743 mmHg 60%
    09:00 +17°C° 0.1 mm 5 m/S 743 mmHg 58%
    10:00 +19°C° 0.1 mm 6 m/S 743 mmHg 56%
    11:00 +20°C° 0.1 mm 6 m/S 743 mmHg 54%
    12:00 +20°C° 0.1 mm 6 m/S 743 mmHg 52%
    13:00 +21°C° 0.1 mm 5 m/S 742 mmHg 51%
    14:00 +22°C° 0.1 mm 5 m/S 742 mmHg 49%
    15:00 +21°C° 0 mm 4 m/S 742 mmHg 53%
    16:00 +21°C° 0 mm 4 m/S 742 mmHg 56%
    17:00 +21°C° 0 mm 3 m/S 742 mmHg 60%
    18:00 +19°C° 0.3 mm 2 m/S 742 mmHg 67%
    19:00 +18°C° 0.3 mm 2 m/S 742 mmHg 74%
    20:00 +17°C° 0.3 mm 2 m/S 742 mmHg 81%
    21:00 +16°C° 0.2 mm 3 m/S 743 mmHg 85%
    22:00 +14°C° 0.2 mm 4 m/S 743 mmHg 89%
    23:00 +13°C° 0.2 mm 4 m/S 743 mmHg 92%

    29 April, Montag

    Zeit Temperatur Niederschläge Wind Luftdruck Luftfeuchtigkeit
    00:00 +12°C° 0.4 mm 5 m/S 743 mmHg 90%
    01:00 +12°C° 0.4 mm 5 m/S 744 mmHg 88%
    02:00 +10°C° 0.4 mm 6 m/S 744 mmHg 86%
    03:00 +9°C° 0.1 mm 6 m/S 744 mmHg 85%
    04:00 +9°C° 0.1 mm 6 m/S 745 mmHg 85%
    05:00 +9°C° 0.1 mm 6 m/S 745 mmHg 84%
    06:00 +8°C° 0 mm 7 m/S 746 mmHg 82%
    07:00 +8°C° 0 mm 7 m/S 746 mmHg 79%
    08:00 +7°C° 0 mm 8 m/S 746 mmHg 77%
    09:00 +8°C° 0.1 mm 7 m/S 747 mmHg 74%
    10:00 +8°C° 0.1 mm 7 m/S 747 mmHg 70%
    11:00 +8°C° 0.1 mm 7 m/S 748 mmHg 67%
    12:00 +9°C° 0 mm 7 m/S 748 mmHg 64%
    13:00 +10°C° 0 mm 6 m/S 748 mmHg 60%
    14:00 +10°C° 0 mm 6 m/S 748 mmHg 57%
    15:00 +10°C° 0 mm 6 m/S 748 mmHg 57%
    16:00 +10°C° 0 mm 6 m/S 748 mmHg 57%
    17:00 +9°C° 0 mm 5 m/S 749 mmHg 57%
    18:00 +9°C° 0 mm 5 m/S 749 mmHg 57%
    19:00 +8°C° 0 mm 5 m/S 749 mmHg 57%
    20:00 +7°C° 0 mm 5 m/S 750 mmHg 57%
    21:00 +7°C° 0 mm 5 m/S 750 mmHg 56%
    22:00 +6°C° 0 mm 5 m/S 750 mmHg 56%
    23:00 +6°C° 0 mm 5 m/S 751 mmHg 55%
    Mehr zeigen